FW0825 Weather Reports


time (UTC)temp
C
wind
direction
speed
KPH
gust
KPH
rain 1hr
cm
rain 24hr
cm
rain mn
cm
humidity
%
barometer
mb
20260504045529 15 233 8.0 14.5 0.00 0.00 0.00 69 1006.1
20260504045028 15 190 8.0 16.1 0.00 0.00 0.00 69 1006.1
20260504044526 15 202 8.0 16.1 0.00 0.00 0.00 68 1006.0
20260504044244 15 192 9.7 14.5 0.00 0.00 0.00 69 1006.0
20260504043524 15 222 9.7 14.5 0.00 0.00 0.00 69 1006.0
20260504043018 15 200 9.7 14.5 0.00 0.00 0.00 69 1006.0
20260504042511 15 180 9.7 14.5 0.00 0.00 0.00 69 1005.9
20260504042227 15 225 8.0 14.5 0.00 0.00 0.00 69 1006.0
20260504041500 15 209 8.0 14.5 0.00 0.00 0.00 69 1006.0
20260504041000 15 221 8.0 14.5 0.00 0.00 0.00 69 1006.0
20260504040459 15 202 6.4 14.5 0.00 0.00 0.00 71 1006.0
20260504040000 15 215 6.4 12.9 0.00 0.00 0.00 73 1006.0
20260504035500 15 198 8.0 12.9 0.00 0.00 0.00 73 1005.9
20260504035000 15 205 8.0 12.9 0.00 0.00 0.00 72 1006.0
20260504034500 15 229 8.0 14.5 0.00 0.00 0.00 73 1006.0
20260504033959 15 207 8.0 14.5 0.00 0.00 0.00 71 1006.1
20260504033719 15 220 8.0 12.9 0.00 0.00 0.00 72 1006.1
20260504033000 15 176 8.0 12.9 0.00 0.00 0.00 73 1006.2
20260504032456 15 191 8.0 12.9 0.00 0.00 0.00 74 1006.2
20260504031956 15 206 6.4 12.9 0.00 0.00 0.00 74 1006.2
20260504031455 15 196 6.4 14.5 0.00 0.00 0.00 76 1006.3
20260504030956 15 182 8.0 14.5 0.00 0.00 0.00 74 1006.3
20260504030456 15 188 6.4 14.5 0.00 0.00 0.00 75 1006.3
20260504025956 15 193 8.0 12.9 0.00 0.00 0.00 74 1006.2
20260504025456 15 187 8.0 11.3 0.00 0.00 0.00 74 1006.3
20260504025438 15 180 8.0 12.9 0.00 0.00 0.00 74 1006.3
20260504024456 15 186 6.4 12.9 0.00 0.00 0.00 74 1006.3
20260504023948 15 176 6.4 11.3 0.00 0.00 0.00 72 1006.3
20260504023443 15 192 6.4 11.3 0.00 0.00 0.00 72 1006.3
20260504022937 14 196 3.2 11.3 0.00 0.00 0.00 74 1006.2
20260504022909 14 179 1.6 6.4 0.00 0.00 0.00 78 1006.3
20260504022152 15 226 1.6 4.8 0.00 0.00 0.00 78 1006.2
20260504021419 15 215 1.6 4.8 0.00 0.00 0.00 78 1006.2
20260504020912 15 215 3.2 4.8 0.00 0.00 0.00 76 1006.1
20260504020406 15 213 1.6 4.8 0.00 0.00 0.00 75 1006.1
20260504020120 15 219 1.6 4.8 0.00 0.00 0.00 74 1006.1
20260504015619 15 166 3.2 6.4 0.00 0.00 0.00 73 1006.0
20260504014850 15 166 3.2 6.4 0.00 0.00 0.00 72 1006.0
20260504014344 15 191 3.2 4.8 0.00 0.00 0.00 73 1006.1
20260504013837 15 191 3.2 6.4 0.00 0.00 0.00 71 1006.0
20260504013333 16 186 3.2 4.8 0.00 0.00 0.00 71 1006.0
20260504012834 16 221 1.6 3.2 0.00 0.00 0.00 71 1006.0
20260504012333 16 221 1.6 4.8 0.00 0.00 0.00 70 1005.9
20260504011834 17 221 1.6 4.8 0.00 0.00 0.00 67 1006.0
20260504011330 17 221 0.0 4.8 0.00 0.00 0.00 63 1005.9
20260504010830 17 221 0.0 1.6 0.00 0.00 0.00 59 1005.8
20260504010330 17 221 0.0 1.6 0.00 0.00 0.00 58 1005.7
20260504005827 18 221 1.6 3.2 0.00 0.00 0.00 56 1005.6
20260504005327 18 221 3.2 4.8 0.00 0.00 0.00 56 1005.7
20260504004828 18 221 3.2 4.8 0.00 0.00 0.00 54 1005.7
20260504004326 19 221 3.2 4.8 0.00 0.00 0.00 53 1005.6
20260504003824 19 221 3.2 6.4 0.00 0.00 0.00 51 1005.6
20260504003324 20 215 4.8 11.3 0.00 0.00 0.00 50 1005.6
20260504002823 20 193 4.8 11.3 0.00 0.00 0.00 50 1005.7
20260504002321 20 221 4.8 11.3 0.00 0.00 0.00 47 1005.6
20260504002045 20 262 6.4 20.9 0.00 0.00 0.00 47 1005.7
20260504001321 20 273 8.0 20.9 0.00 0.00 0.00 50 1005.8
20260504000822 20 248 6.4 14.5 0.00 0.00 0.00 48 1005.8
20260504000321 20 231 8.0 14.5 0.00 0.00 0.00 49 1005.7
20260503235815 20 223 8.0 14.5 0.00 0.00 0.00 49 1005.6
20260503235308 20 214 8.0 17.7 0.00 0.00 0.00 50 1005.7
20260503234803 20 244 9.7 17.7 0.00 0.00 0.00 49 1005.6
20260503234257 20 335 11.3 20.9 0.00 0.00 0.00 49 1005.6
20260503233751 20 264 11.3 20.9 0.00 0.00 0.00 49 1005.7
20260503233245 20 237 11.3 17.7 0.00 0.00 0.00 49 1005.6
20260503232739 20 217 11.3 17.7 0.00 0.00 0.00 50 1005.7
20260503232237 20 215 12.9 20.9 0.00 0.00 0.00 49 1005.7
20260503231737 20 209 11.3 20.9 0.00 0.00 0.00 48 1005.8
20260503231237 20 263 12.9 24.1 0.00 0.00 0.00 50 1005.9
20260503230738 20 256 14.5 24.1 0.00 0.00 0.00 48 1005.8
20260503230237 20 276 16.1 29.0 0.00 0.00 0.00 47 1005.9
20260503225737 20 175 14.5 29.0 0.00 0.00 0.00 48 1006.0
20260503225237 20 273 12.9 25.7 0.00 0.00 0.00 48 1006.0
20260503224737 20 221 14.5 27.4 0.00 0.00 0.00 49 1006.0
20260503224237 20 219 14.5 27.4 0.00 0.00 0.00 50 1006.3
20260503223737 20 282 14.5 29.0 0.00 0.00 0.00 48 1006.2
20260503223237 20 234 16.1 30.6 0.00 0.00 0.00 48 1006.3
20260503222737 20 213 14.5 30.6 0.00 0.00 0.00 49 1006.1
20260503222237 19 270 14.5 32.2 0.00 0.00 0.00 48 1006.1
20260503221738 19 228 17.7 32.2 0.00 0.00 0.00 49 1006.1
20260503221237 20 250 17.7 30.6 0.00 0.00 0.00 47 1006.2
20260503220737 20 260 16.1 35.4 0.00 0.00 0.00 47 1006.1
20260503220238 19 256 19.3 35.4 0.00 0.00 0.00 48 1006.0
20260503215734 19 227 19.3 30.6 0.00 0.00 0.00 49 1006.0
20260503215235 19 246 19.3 37.0 0.00 0.00 0.00 51 1006.1
20260503214736 19 225 19.3 37.0 0.00 0.00 0.00 49 1006.0
20260503214234 19 236 19.3 33.8 0.00 0.00 0.00 51 1006.1
20260503213735 18 214 19.3 30.6 0.00 0.00 0.00 51 1006.2
20260503213237 18 188 20.9 33.8 0.00 0.00 0.00 55 1006.2
20260503212736 18 182 19.3 33.8 0.00 0.00 0.00 54 1006.3
20260503212235 18 228 17.7 38.6 0.00 0.00 0.00 52 1006.3
20260503211958 18 294 19.3 38.6 0.00 0.00 0.00 53 1006.4
20260503211235 18 248 24.1 38.6 0.00 0.00 0.00 54 1006.4
20260503210735 18 202 25.7 38.6 0.00 0.00 0.00 55 1006.6
20260503210235 17 198 25.7 40.2 0.00 0.00 0.00 57 1006.6
20260503205735 17 202 25.7 46.7 0.00 0.00 0.00 55 1006.7
20260503205235 17 187 25.7 46.7 0.00 0.00 0.00 56 1007.0
20260503204735 17 207 25.7 43.5 0.00 0.00 0.00 55 1006.8
20260503204234 17 233 27.4 46.7 0.00 0.00 0.00 53 1007.2
20260503203735 17 229 29.0 46.7 0.00 0.00 0.00 51 1007.4
20260503203235 17 219 27.4 43.5 0.00 0.00 0.00 55 1007.4
20260503202735 17 205 25.7 40.2 0.00 0.00 0.00 52 1007.7
20260503202235 17 227 24.1 38.6 0.00 0.00 0.00 53 1007.7
20260503202002 17 229 24.1 38.6 0.00 0.00 0.00 57 1007.7
20260503201235 17 207 25.7 49.9 0.00 0.00 0.00 57 1007.7
20260503200734 16 183 24.1 49.9 0.00 0.00 0.00 60 1007.8
20260503200456 16 197 22.5 43.5 0.00 0.00 0.00 60 1007.8
20260503195734 16 202 20.9 43.5 0.00 0.00 0.00 62 1008.0
20260503195234 16 191 22.5 38.6 0.00 0.00 0.00 65 1008.2
20260503195000 16 175 24.1 41.8 0.00 0.00 0.00 64 1008.3
20260503194454 16 203 22.5 41.8 0.00 0.00 0.00 65 1008.5
20260503193735 15 184 24.1 40.2 0.00 0.00 0.00 67 1008.8
20260503193236 15 173 25.7 40.2 0.00 0.00 0.00 64 1008.9
20260503192959 15 207 25.7 46.7 0.00 0.00 0.00 67 1009.1
20260503192235 15 188 27.4 46.7 0.00 0.00 0.00 67 1009.1
20260503191734 15 244 25.7 46.7 0.00 0.00 0.00 66 1009.2
20260503191228 15 194 25.7 43.5 0.00 0.00 0.00 65 1009.1
20260503190728 15 188 25.7 38.6 0.00 0.00 0.00 65 1009.2
20260503190228 15 208 22.5 38.6 0.00 0.00 0.00 62 1009.2
20260503185728 15 192 20.9 38.6 0.00 0.00 0.00 63 1008.9
20260503185227 15 179 20.9 33.8 0.00 0.00 0.00 64 1008.9
20260503184953 15 185 22.5 43.5 0.00 0.00 0.00 64 1008.9
20260503184717 15 207 20.9 43.5 0.00 0.00 0.00 63 1008.9
20260503183724 15 175 20.9 37.0 0.00 0.00 0.00 63 1009.0
20260503183225 15 185 22.5 37.0 0.00 0.00 0.00 65 1009.0
20260503182725 15 174 24.1 45.1 0.00 0.00 0.00 62 1009.1
20260503182224 14 155 25.7 45.1 0.00 0.00 0.00 64 1009.2
20260503181942 14 223 25.7 45.1 0.00 0.00 0.00 60 1009.2
20260503181452 15 182 24.1 46.7 0.00 0.00 0.00 63 1009.2
20260503180722 14 173 22.5 46.7 0.00 0.00 0.00 60 1009.4
20260503180223 14 184 24.1 41.8 0.00 0.00 0.00 62 1009.5
20260503175948 14 188 20.9 38.6 0.00 0.00 0.00 64 1009.4
20260503175225 14 173 22.5 38.6 0.00 0.00 0.00 62 1009.4
20260503174718 14 182 22.5 37.0 0.00 0.00 0.00 66 1009.7
20260503174212 13 186 20.9 37.0 0.00 0.00 0.00 64 1009.7
20260503173706 13 190 20.9 37.0 0.00 0.00 0.00 66 1009.8
20260503173643 13 175 19.3 35.4 0.00 0.00 0.00 68 1010.0
20260503172920 13 202 19.3 37.0 0.00 0.00 0.00 67 1010.2
20260503172148 13 136 20.9 37.0 0.00 0.00 0.00 68 1010.3
20260503171642 13 160 19.3 40.2 0.00 0.00 0.00 68 1010.5
20260503171137 13 188 22.5 40.2 0.00 0.00 0.00 69 1010.7
20260503170630 12 192 22.5 40.2 0.00 0.00 0.00 71 1010.8
20260503170124 12 165 22.5 38.6 0.00 0.00 0.00 71 1011.0
20260503150916 12 222 24.1 41.8 0.00 0.00 0.00 67 1013.5
20260503150415 12 233 24.1 41.8 0.00 0.00 0.00 66 1013.5
20260503130912 10 253 22.5 37.0 0.00 0.00 0.00 64 1014.2
20260503130412 10 196 22.5 33.8 0.00 0.00 0.00 64 1014.0
20260503110359 10 205 16.1 25.7 0.00 0.00 0.00 65 1013.5
20260503100251 9 208 16.1 24.1 0.00 0.00 0.00 62 1013.7
20260503090207 9 217 12.9 20.9 0.00 0.00 0.00 62 1014.1
20260503081209 9 201 14.5 22.5 0.00 0.00 0.00 64 1014.5
20260503080930 10 218 14.5 20.9 0.00 0.00 0.00 65 1014.5
20260503080210 9 205 14.5 20.9 0.00 0.00 0.00 65 1014.5
20260503072631 9 201 12.9 17.7 0.00 0.00 0.00 65 1014.5
20260503072612 9 213 12.9 17.7 0.00 0.00 0.00 63 1014.6
20260503071631 9 212 12.9 17.7 0.00 0.00 0.00 66 1014.6
20260503071131 9 200 12.9 19.3 0.00 0.00 0.00 65 1014.6
20260503070631 9 200 12.9 19.3 0.00 0.00 0.00 64 1014.7
20260503070132 9 234 11.3 17.7 0.00 0.00 0.00 65 1014.7
20260503055129 9 196 11.3 19.3 0.00 0.00 0.00 67 1015.3
20260503054628 9 184 11.3 16.1 0.00 0.00 0.00 67 1015.4
20260503054129 9 179 9.7 16.1 0.00 0.00 0.00 67 1015.3
20260503053851 9 223 9.7 14.5 0.00 0.00 0.00 67 1015.3
20260503053128 9 197 9.7 16.1 0.00 0.00 0.00 68 1015.4
20260503052629 9 242 11.3 19.3 0.00 0.00 0.00 68 1015.4
20260503052129 9 217 11.3 19.3 0.00 0.00 0.00 67 1015.4
20260503051628 9 184 11.3 16.1 0.00 0.00 0.00 68 1015.6
20260503051129 9 211 11.3 19.3 0.00 0.00 0.00 67 1015.7
20260503050627 9 196 11.3 19.3 0.00 0.00 0.00 67 1015.6
20260503050126 9 215 11.3 19.3 0.00 0.00 0.00 66 1015.6